Weather History for New York, NY

Change the Weather History Date:

Wednesday, May 22, 2013

  Actual Average Record
Temperature  
Mean Temperature 68 °F 64 °F  
Max Temperature 78 °F 73 °F 94 °F (1992)
Min Temperature 58 °F 56 °F 47 °F (1948)
Degree Days  
Heating Degree Days 0 3  
Month to date heating degree days 96 113  
Since 1 July heating degree days 4405 4627  
Cooling Degree Days 3 2  
Month to date cooling degree days 34 29  
Year to date cooling degree days 34 37  
Growing Degree Days 18 (Base 50)    
Moisture  
Dew Point 60 °F    
Average Humidity 79    
Maximum Humidity 93    
Minimum Humidity 64    
Precipitation  
Precipitation 0.00 in 0.13 in 0.95 in (1949)
Month to date precipitation 3.76 2.56  
Year to date precipitation 13.18 16.46  
Snow  
Snow 0.00 in 0.00 in - ()
Month to date snowfall T 0.0  
Since 1 July snowfall 22.2 26.9  
Snow Depth 0.00 in    
Sea Level Pressure  
Sea Level Pressure 29.89 in    
Wind  
Wind Speed 8 mph (ENE)    
Max Wind Speed 25 mph    
Max Gust Speed 31 mph    
Visibility 5 miles    
Events      
T = Trace of Precipitation, MM = Missing Value Source: NWS Daily Summary

Daily Weather History Graph

Daily Weather History Graph

Search for Another Location

Airport:

Trip Planner

Search our weather history database for the weather conditions in past years. The results will help you decide how hot, cold, wet, or windy it might be!

Date:

Astronomy

May. 22, 2013 Rise Set
Actual Time 5:32 AM EDT 8:12 PM EDT
Civil Twilight 5:00 AM EDT 8:44 PM EDT
Nautical Twilight 4:20 AM EDT 9:24 PM EDT
Astronomical Twilight 3:35 AM EDT 10:10 PM EDT
Moon 5:31 PM EDT (5/22) 3:35 AM EDT (5/22)
Length of Visible Light 15h 44m
Length of Day
14h 40m
Waxing Gibbous, 91% of the Moon is Illuminated
May 22
Waxing Gibbous
May 25
Full
May 31
Last Quarter
Jun 8
New
Jun 16
First Quarter

Hourly Weather History & Observations

Time (EDT) Temp. Dew Point Humidity Pressure Visibility Wind Dir Wind Speed Gust Speed Precip Events Conditions
12:51 AM 73.0 °F 64.0 °F 73% 29.86 in 10.0 mi South 4.6 mph - N/A   Mostly Cloudy
1:51 AM 75.0 °F 64.9 °F 71% 29.86 in 10.0 mi SW 6.9 mph - N/A   Mostly Cloudy
2:51 AM 73.0 °F 64.9 °F 76% 29.85 in 10.0 mi South 6.9 mph - N/A   Mostly Cloudy
3:51 AM 61.0 °F 57.9 °F 90% 29.88 in 6.0 mi NE 10.4 mph - N/A   Mostly Cloudy
3:53 AM 60.8 °F 57.2 °F 88% 29.88 in 6.0 mi NE 8.1 mph - N/A   Mostly Cloudy
4:04 AM 60.8 °F 57.2 °F 88% 29.88 in 5.0 mi NE 12.7 mph - N/A   Mostly Cloudy
4:51 AM 61.0 °F 57.9 °F 90% 29.88 in 5.0 mi NE 13.8 mph - N/A   Overcast
5:51 AM 59.0 °F 55.9 °F 90% 29.91 in 1.5 mi NE 19.6 mph 25.3 mph N/A   Overcast
6:51 AM 57.9 °F 55.0 °F 90% 29.94 in 2.0 mi NE 12.7 mph - N/A   Overcast
7:47 AM 57.2 °F 55.4 °F 94% 29.93 in 1.5 mi NE 9.2 mph - N/A   Overcast
7:51 AM 57.9 °F 55.0 °F 90% 29.93 in 1.5 mi ENE 9.2 mph - N/A   Overcast
8:12 AM 57.2 °F 55.4 °F 94% 29.94 in 0.8 mi NE 5.8 mph - N/A   Overcast
8:48 AM 59.0 °F 55.4 °F 88% 29.93 in 2.0 mi NE 5.8 mph - N/A   Overcast
8:51 AM 59.0 °F 55.9 °F 90% 29.93 in 2.0 mi NE 6.9 mph - N/A   Overcast
8:58 AM 59.0 °F 55.4 °F 88% 29.93 in 2.0 mi NE 6.9 mph - N/A   Overcast
9:41 AM 60.8 °F 55.4 °F 82% 29.93 in 2.5 mi NE 5.8 mph - N/A   Overcast
9:46 AM 60.8 °F 57.2 °F 88% 29.93 in 2.5 mi NE 8.1 mph - N/A   Overcast
9:51 AM 61.0 °F 55.9 °F 83% 29.93 in 2.5 mi NE 8.1 mph - N/A   Haze
10:42 AM 62.6 °F 57.2 °F 82% 29.94 in 2.5 mi NE 5.8 mph - N/A   Haze
10:51 AM 62.1 °F 57.0 °F 84% 29.94 in 2.5 mi NE 5.8 mph - N/A   Haze
11:17 AM 62.6 °F 57.2 °F 82% 29.92 in 3.0 mi NE 5.8 mph - N/A   Haze
11:51 AM 64.0 °F 57.9 °F 80% 29.92 in 3.0 mi NE 9.2 mph - N/A   Haze
12:51 PM 68.0 °F 59.0 °F 73% 29.92 in 6.0 mi NE 6.9 mph - N/A   Haze
1:18 PM 69.8 °F 59.0 °F 68% 29.90 in 7.0 mi NE 8.1 mph - N/A   Overcast
1:51 PM 70.0 °F 60.1 °F 71% 29.89 in 6.0 mi NE 8.1 mph - N/A   Haze
2:51 PM 75.0 °F 62.1 °F 64% 29.88 in 7.0 mi NNE 3.5 mph - N/A   Overcast
3:51 PM 75.9 °F 66.0 °F 71% 29.86 in 5.0 mi Variable 6.9 mph - N/A   Haze
4:25 PM 75.2 °F 66.2 °F 73% 29.85 in 5.0 mi SSE 10.4 mph - N/A   Haze
4:51 PM 77.0 °F 66.9 °F 71% 29.86 in 5.0 mi SSE 10.4 mph - N/A   Haze
5:51 PM 78.1 °F 66.9 °F 68% 29.84 in 8.0 mi Variable 6.9 mph - N/A   Mostly Cloudy
6:51 PM 75.0 °F 64.0 °F 69% 29.84 in 7.0 mi SSE 8.1 mph - N/A   Overcast
7:51 PM 72.0 °F 63.0 °F 73% 29.85 in 6.0 mi SE 9.2 mph - N/A   Haze
8:51 PM 70.0 °F 63.0 °F 78% 29.86 in 9.0 mi South 3.5 mph - N/A   Overcast
9:51 PM 71.1 °F 63.0 °F 75% 29.88 in 9.0 mi South 4.6 mph - N/A   Mostly Cloudy
10:51 PM 72.0 °F 64.0 °F 76% 29.88 in 9.0 mi South 5.8 mph - N/A   Mostly Cloudy
11:51 PM 70.0 °F 63.0 °F 78% 29.88 in 9.0 mi SSE 8.1 mph - N/A   Scattered Clouds